Home > Time Zones > World Clock > Weather > Japan > Tokyo > Past weeks

Flag for Japan Weather past 2 weeks in Tokyo, Japan

Now
72 °F

Mild.


Feels Like: 75 °F
Forecast: 62 / 75 °F
Wind: 6 mph from Northeast

Location: Tokyo

Current Time: Sep 17, 2014 at 10:44:54 PM

Latest Report: Sep 17, 2014 at 10:00 PM


Visibility: N/A

Pressure: 29.90 "Hg

Humidity: 70%

Dew point: 62 °F

Location of TokyoLocation

Historic Weather in Tokyo — Graph

°F

Tokyo temperature yesterday

Maximum temperature yesterday: 84 °F (at 12:00 PM)
Minimum temperature yesterday: 71 °F (at 6:00 AM)
Average temperature yesterday: 77 °F

Past Weeks' High & Low Weather Summary

 TemperatureHumidityPressure
High88 °F (Sep 5, 1:00 PM)95% (Sep 6, 11:00 PM)30.03 "Hg (Sep 6, 11:00 PM)
Low67 °F (Sep 7, 11:00 AM)40% (Sep 14, 2:00 PM)29.63 "Hg (Sep 9, 2:00 PM)
Average75 °F73%29.86 "Hg
* Reported Sep 2 9:00 PM — Sep 17 9:00 PM, Tokyo, Weather by CustomWeather, © 2014

Note: Actual official high and low records may vary slightly from our data, if they occured in-between our weather recording intervals... More about our weather records

Advertising

Tokyo weather history for previous 24 hours

 ConditionsComfort  
Time TempWeatherWind HumidityBarometerVisibility
9:00 PM
Sep 17
72 °FSprinkles. Overcast.7 mph68%29.91 "Hg12 mi
8:00 PM72 °FMild.3 mph66%29.92 "HgN/A
7:00 PM73 °FMild.7 mph64%29.91 "HgN/A
6:00 PM74 °FOvercast.7 mph61%29.90 "Hg12 mi
5:00 PM75 °FMild.6 mph58%29.89 "HgN/A
4:00 PM76 °FMild.7 mph55%29.90 "HgN/A
3:00 PM78 °FOvercast.7 mph55%29.89 "Hg12 mi
2:00 PM78 °FWarm.6 mph52%29.88 "HgN/A
1:00 PM78 °FWarm.5 mph53%29.90 "HgN/A
12:00 PM77 °FOvercast.3 mph57%29.93 "Hg12 mi
11:00 AM77 °FMild.5 mph57%29.96 "HgN/A
10:00 AM76 °FMild.6 mph56%29.98 "HgN/A
9:00 AM75 °FOvercast.6 mph60%29.98 "Hg12 mi
8:00 AM73 °FMild.7 mph65%29.98 "HgN/A
7:00 AM72 °FMild.6 mph67%29.99 "HgN/A
6:00 AM72 °FOvercast.6 mph66%29.97 "Hg19 mi
5:00 AM71 °FMild.8 mph69%29.96 "HgN/A
4:00 AM71 °FMild.9 mph71%29.94 "HgN/A
3:00 AM72 °FOvercast.8 mph74%29.93 "Hg12 mi
2:00 AM73 °FMild.8 mph73%29.93 "HgN/A
1:00 AM73 °FMild.5 mph79%29.91 "HgN/A
12:00 AM75 °FMild.6 mph81%29.90 "HgN/A
11:00 PM
Sep 16
76 °FMild.3 mph79%29.89 "HgN/A
10:00 PM77 °FWarm.7 mph77%29.88 "HgN/A
Weather by CustomWeather, © 2014

See weather overviewHow to use our weather pages